Temp
14 13 13 13 14 13 14 13 12 12 12 11 11 11 11 12 12 11 10 10 10 10 11 10 9 8 9 8 8 9 9 8 9 10 9 9 10 11 11 11 11 11 11
13 13 13 14 14 14 14 13 12 11 11 11 11 11 11 12 11 11 11 10 10 9 9 9 8 8 8 8 8 9 8 8 8 9 9 10 11 12 12 12 12 11 11
13 13 13 14 14 14 14 13 12 11 11 11 11 11 11 11 11 11 10 9 9 9 9 9 9 8 8 8 9 9 8 8 8 8 9 11 11 11 11 12 12 11 11
13 13 13 13 14 13 13 12 11 11 11 11 11 10 11 11 11 10 10 9 9 9 9 10 10 9 8 8 9 8 8 8 8 9 9 10 11 11 11 11 11 11 11
13 13 12 12 13 12 12 12 11 12 11 11 11 10 11 10 11 10 10 9 9 9 10 9 9 9 8 8 9 8 8 8 8 9 10 11 10 11 11 11 11 11 11
13 12 12 12 12 12 12 12 12 11 11 11 10 10 10 10 10 10 10 9 9 9 9 9 9 9 9 9 9 8 9 9 9 9 10 10 10 10 11 11 11 10 10
14 12 13 12 11 11 12 12 12 12 11 11 10 10 9 10 10 10 9 9 9 9 9 9 10 10 9 9 9 10 9 9 10 9 10 10 10 10 10 10 10 10 10
14 12 12 12 11 11 11 12 12 11 11 10 10 10 9 8 9 9 9 9 8 8 9 9 9 9 9 9 10 10 9 9 10 10 10 9 9 9 9 10 10 10 10
12 12 12 12 12 11 10 11 11 11 11 10 10 10 9 9 8 8 9 9 8 8 8 8 8 9 9 9 9 9 9 9 9 10 9 9 9 9 9 9 9 9 9
12 12 12 12 12 12 11 10 11 10 11 10 10 10 10 11 9 8 8 8 8 8 7 8 8 8 8 8 9 9 9 8 9 9 8 9 9 9 9 9 9 9 9
10 11 11 11 11 11 11 11 10 10 11 11 10 10 10 10 10 10 9 8 8 8 7 7 8 7 8 8 8 8 7 7 8 8 7 7 8 8 8 8 8 9 8
9 10 10 10 11 10 11 11 10 10 10 11 10 10 10 10 10 10 10 9 9 9 7 7 7 7 7 7 7 7 7 7 7 8 7 5 5 8 8 8 8 8 8
9 9 9 10 10 10 10 10 10 10 10 10 10 10 10 10 10 10 10 9 9 9 8 7 7 7 7 7 7 7 7 6 7 7 7 5 4 5 8 7 7 8 7
8 8 8 9 9 10 10 10 9 10 10 10 10 10 10 9 10 9 9 9 9 8 9 9 9 8 7 7 7 7 7 6 6 6 7 6 5 5 7 7 6 7 7
7 7 8 8 9 9 9 10 9 9 9 10 9 9 8 9 8 9 8 9 9 8 8 9 9 9 9 9 8 7 6 6 6 6 6 6 6 6 6 7 6 6 6
7 7 7 7 8 9 9 9 9 8 8 9 9 9 8 8 8 8 8 8 8 9 8 9 9 9 9 9 9 8 7 6 6 5 5 6 5 6 6 6 6 5 6
6 6 7 8 7 8 8 8 8 8 8 8 8 8 8 8 8 8 7 8 8 7 7 8 8 8 8 8 9 9 8 7 5 5 5 5 5 5 5 5 5 5 5
5 6 5 6 6 7 7 7 8 8 7 8 7 7 7 8 7 7 8 8 7 8 8 8 7 7 8 8 9 9 9 8 7 5 5 5 5 5 5 5 4 4 5
4 5 5 6 6 6 6 7 7 7 7 7 7 7 7 7 7 7 7 8 7 7 7 7 7 7 7 8 8 8 8 8 7 6 5 5 5 5 4 4 4 4 4
2 3 4 5 6 6 6 6 6 6 6 6 7 7 7 7 7 7 7 7 7 7 7 6 6 6 6 7 7 7 7 7 8 5 4 4 4 4 4 4 3 3 3
1 2 3 4 5 5 5 6 6 6 6 6 6 6 6 7 7 6 6 6 7 7 6 6 6 5 6 6 6 7 7 7 7 5 3 3 3 3 3 3 3 3 3
1 1 3 3 4 4 4 5 5 5 5 6 6 6 6 6 6 6 6 6 6 6 6 6 6 6 6 6 6 6 6 5 5 6 5 3 3 3 3 3 3 3 2
0 0 2 2 3 3 3 4 5 5 5 5 5 5 5 5 5 6 5 5 5 5 6 6 5 6 6 6 7 5 6 6 6 6 5 4 2 2 2 3 2 2 2
-1 -0 1 1 2 3 3 3 4 4 5 5 5 5 5 6 6 5 5 5 5 5 5 5 6 6 6 6 6 6 6 5 3 4 2 3 4 3 3 2 1 1 1
-2 -1 -0 0 2 2 3 3 3 4 5 5 5 5 5 6 6 5 4 4 4 4 4 5 5 5 5 5 5 5 3 3 3 4 3 3 4 2 2 1 1 -0 1
-3 -2 -0 0 1 2 2 2 2 4 5 6 6 5 5 5 4 5 4 4 4 5 5 4 4 4 4 4 4 4 4 3 3 3 4 3 2 1 -1 1 0 -0 0
Height
1509 1513 1517 1520 1523 1524 1526 1528 1532 1536 1541 1545 1547 1550 1551 1553 1556 1558 1559 1561 1562 1563 1565 1567 1567 1567 1568 1569 1570 1572 1573 1574 1575 1577 1577 1578 1578 1578 1577 1577 1576 1576 1575
1505 1509 1513 1517 1520 1522 1524 1527 1531 1534 1539 1543 1546 1548 1550 1552 1555 1557 1558 1558 1560 1561 1563 1564 1565 1566 1567 1568 1570 1572 1573 1574 1575 1576 1576 1576 1577 1577 1577 1577 1577 1576 1575
1500 1504 1508 1513 1516 1519 1522 1525 1530 1534 1538 1542 1544 1548 1550 1551 1554 1556 1557 1557 1559 1560 1561 1563 1564 1565 1566 1568 1570 1571 1572 1573 1574 1575 1575 1575 1576 1576 1576 1576 1576 1575 1574
1496 1500 1504 1508 1513 1515 1519 1523 1527 1531 1535 1539 1542 1545 1548 1549 1552 1554 1556 1557 1558 1559 1561 1562 1563 1565 1567 1568 1569 1570 1571 1572 1573 1574 1574 1575 1575 1575 1575 1576 1575 1575 1574
1491 1495 1499 1504 1508 1511 1514 1519 1524 1528 1532 1536 1539 1543 1545 1547 1550 1553 1554 1556 1557 1558 1560 1561 1563 1564 1566 1566 1568 1569 1570 1571 1572 1572 1573 1574 1574 1575 1575 1575 1575 1574 1573
1486 1490 1495 1499 1504 1508 1511 1515 1520 1525 1529 1533 1538 1540 1543 1545 1547 1550 1552 1554 1556 1557 1559 1561 1561 1563 1564 1565 1566 1568 1569 1570 1570 1571 1571 1572 1573 1573 1574 1574 1574 1573 1572
1481 1485 1490 1495 1499 1502 1507 1510 1515 1519 1525 1529 1534 1538 1541 1543 1545 1548 1550 1552 1554 1555 1557 1559 1560 1562 1563 1564 1564 1567 1569 1569 1569 1570 1570 1570 1571 1572 1572 1572 1572 1572 1571
1474 1479 1484 1488 1494 1497 1503 1504 1508 1513 1519 1524 1527 1533 1537 1541 1543 1545 1547 1549 1551 1552 1554 1557 1558 1559 1561 1562 1563 1565 1567 1568 1568 1568 1568 1568 1569 1570 1570 1570 1570 1570 1569
1467 1473 1478 1483 1488 1491 1498 1499 1501 1506 1511 1518 1521 1525 1532 1534 1536 1540 1542 1545 1547 1548 1550 1553 1554 1557 1558 1560 1561 1563 1565 1566 1566 1566 1566 1566 1567 1568 1568 1568 1568 1568 1567
1461 1466 1472 1477 1482 1486 1491 1495 1499 1500 1506 1511 1517 1522 1523 1524 1530 1534 1536 1539 1542 1544 1546 1549 1551 1553 1555 1557 1559 1560 1562 1563 1564 1564 1563 1563 1564 1565 1565 1565 1565 1565 1565
1457 1460 1466 1471 1476 1480 1485 1490 1494 1498 1502 1507 1509 1513 1518 1521 1524 1526 1528 1532 1535 1538 1541 1544 1547 1548 1551 1553 1555 1557 1559 1560 1561 1561 1561 1560 1561 1562 1562 1562 1562 1562 1562
1453 1456 1461 1466 1471 1475 1480 1484 1489 1492 1497 1500 1506 1508 1511 1514 1517 1521 1523 1526 1528 1532 1535 1538 1541 1543 1545 1548 1550 1552 1554 1555 1557 1557 1558 1559 1557 1557 1558 1559 1559 1559 1559
1448 1451 1456 1462 1466 1470 1475 1479 1484 1487 1490 1493 1499 1504 1507 1510 1514 1517 1520 1522 1524 1526 1529 1532 1535 1537 1539 1542 1544 1547 1548 1550 1552 1553 1553 1554 1555 1554 1554 1555 1555 1555 1555
1445 1448 1453 1458 1463 1467 1471 1475 1479 1483 1487 1491 1495 1498 1502 1506 1509 1512 1514 1517 1520 1521 1522 1525 1528 1530 1532 1534 1536 1540 1542 1544 1546 1548 1548 1549 1550 1550 1549 1551 1551 1551 1551
1443 1444 1448 1453 1458 1463 1467 1471 1474 1478 1482 1485 1489 1491 1495 1500 1504 1507 1509 1512 1514 1515 1515 1517 1520 1523 1526 1527 1530 1532 1534 1537 1539 1542 1543 1544 1544 1544 1544 1546 1547 1547 1547
1439 1440 1444 1449 1454 1459 1463 1466 1469 1473 1476 1480 1483 1488 1490 1494 1498 1500 1504 1506 1508 1510 1509 1512 1514 1517 1520 1522 1523 1524 1525 1529 1531 1534 1537 1537 1539 1539 1539 1541 1542 1542 1542
1435 1438 1441 1445 1448 1453 1457 1460 1464 1468 1471 1474 1477 1480 1484 1488 1491 1493 1496 1500 1501 1503 1503 1505 1508 1510 1513 1515 1518 1517 1518 1519 1521 1524 1528 1530 1532 1535 1535 1536 1536 1536 1537
1431 1435 1438 1441 1444 1448 1451 1454 1458 1461 1465 1468 1470 1475 1478 1481 1484 1486 1489 1491 1493 1496 1498 1498 1500 1501 1503 1507 1509 1510 1511 1512 1513 1516 1519 1522 1525 1527 1528 1530 1531 1530 1531
1427 1430 1434 1437 1440 1443 1446 1449 1452 1456 1458 1462 1466 1468 1471 1474 1475 1478 1480 1483 1485 1488 1489 1489 1490 1493 1495 1499 1501 1503 1504 1505 1507 1509 1511 1514 1516 1519 1521 1522 1524 1524 1524
1425 1427 1429 1431 1434 1437 1441 1444 1447 1450 1453 1456 1459 1462 1464 1467 1469 1472 1473 1475 1477 1479 1481 1482 1481 1483 1487 1488 1492 1494 1496 1497 1499 1501 1504 1505 1508 1510 1512 1513 1517 1517 1517
1424 1424 1425 1427 1430 1432 1435 1438 1440 1443 1447 1449 1452 1454 1456 1458 1461 1463 1465 1467 1468 1469 1471 1473 1472 1474 1475 1478 1480 1484 1488 1490 1491 1492 1495 1497 1500 1502 1504 1506 1507 1509 1510
1422 1422 1422 1423 1425 1427 1430 1432 1434 1437 1439 1442 1444 1446 1449 1450 1452 1454 1456 1457 1459 1460 1461 1461 1463 1462 1465 1468 1472 1474 1478 1480 1481 1483 1485 1489 1492 1493 1496 1498 1501 1503 1505
1421 1421 1420 1420 1422 1424 1424 1427 1428 1430 1432 1434 1436 1438 1440 1441 1443 1444 1446 1447 1448 1449 1449 1452 1451 1450 1455 1458 1464 1463 1466 1469 1469 1472 1475 1478 1483 1484 1488 1491 1493 1495 1497
1419 1417 1416 1417 1417 1418 1419 1421 1422 1423 1425 1427 1428 1430 1431 1432 1433 1435 1436 1435 1436 1437 1438 1441 1439 1440 1444 1448 1449 1454 1454 1458 1460 1464 1468 1469 1474 1476 1480 1483 1486 1488 1490
1415 1413 1413 1414 1413 1413 1413 1415 1415 1416 1417 1419 1420 1421 1422 1423 1425 1426 1426 1426 1426 1426 1428 1430 1431 1433 1434 1436 1440 1442 1444 1449 1451 1454 1459 1462 1466 1469 1471 1475 1478 1481 1482
1410 1409 1408 1408 1409 1407 1408 1408 1408 1408 1409 1411 1413 1413 1414 1415 1416 1418 1418 1418 1417 1418 1420 1421 1422 1423 1425 1426 1428 1434 1437 1439 1442 1446 1451 1455 1459 1462 1466 1467 1469 1473 1474
Wind_Speed
27 25 21 18 14 14 16 22 27 24 22 19 15 15 18 16 14 12 11 11 14 12 18 15 12 11 11 12 10 9 10 10 13 13 10 7 4 2 3 3 4 4 6
30 28 24 20 17 15 17 23 28 23 21 18 16 22 13 14 14 13 10 10 13 14 14 16 10 9 14 12 14 14 11 9 10 8 7 6 4 3 2 3 3 4 6
32 31 29 25 20 17 17 22 26 23 19 19 18 26 20 16 12 11 8 7 13 13 8 13 8 11 12 15 14 15 12 11 7 8 6 6 5 4 3 2 1 3 6
34 34 33 29 24 20 22 26 25 24 24 21 18 19 23 20 15 12 10 9 12 11 13 12 12 11 10 14 16 15 13 10 7 9 8 5 6 5 3 1 1 3 5
34 37 36 32 28 24 24 27 27 25 25 22 20 16 17 21 16 14 12 11 12 13 13 15 14 12 11 16 17 13 9 9 9 9 8 6 7 5 3 1 1 3 5
32 37 38 34 31 28 30 31 29 28 24 25 22 19 19 21 19 16 14 13 13 15 15 17 16 11 13 15 20 15 5 6 9 11 9 8 7 6 4 2 1 3 4
29 33 35 39 36 33 35 32 32 31 25 30 27 24 19 21 19 18 16 14 14 17 17 17 17 16 16 19 22 17 13 8 10 11 10 9 8 6 5 3 2 3 3
36 34 36 37 37 37 36 35 35 35 30 33 32 32 22 16 20 21 20 18 16 20 20 20 20 20 21 24 21 17 15 13 12 12 11 10 9 8 6 5 4 4 4
34 35 35 34 34 38 37 37 39 38 35 38 36 26 18 14 25 24 25 22 18 19 20 22 21 22 22 23 24 19 17 17 14 14 13 12 11 10 8 8 7 6 6
33 33 33 33 34 32 36 37 35 34 33 41 38 39 26 17 18 16 27 27 24 23 23 24 24 24 25 25 25 22 22 18 16 16 15 14 13 12 11 10 9 9 9
29 32 32 32 33 33 32 34 38 40 37 37 42 40 36 25 17 17 21 29 32 28 26 28 27 27 28 27 26 25 23 22 19 18 17 16 15 14 13 12 12 11 10
28 29 31 33 32 32 33 30 29 40 38 35 36 38 41 38 30 26 22 24 32 32 33 29 32 31 31 30 29 28 26 24 23 21 19 18 17 17 15 15 14 13 12
29 28 28 27 27 28 26 28 31 36 43 42 34 34 39 39 34 31 28 24 24 30 31 34 32 32 34 34 33 32 30 29 28 24 23 22 21 21 19 16 17 15 14
26 29 27 25 26 27 29 29 29 28 31 36 37 34 35 35 32 36 32 32 24 24 29 30 31 33 32 34 35 36 34 32 31 29 28 26 25 25 25 19 19 18 16
20 22 24 26 26 29 27 26 29 28 29 29 35 43 33 31 30 33 37 36 33 26 32 32 31 29 29 31 32 38 39 37 36 33 32 31 30 30 29 22 21 21 18
16 18 20 23 26 26 26 27 27 24 27 31 30 33 34 35 35 32 36 37 36 36 35 30 31 30 28 26 27 31 32 38 38 36 35 34 33 32 31 25 23 23 20
17 16 18 19 20 22 25 28 28 29 28 28 28 30 31 30 31 33 32 33 40 39 40 35 36 36 33 28 28 29 28 30 35 40 39 37 35 34 32 28 26 24 22
15 17 19 19 21 22 22 24 26 29 31 32 31 31 30 28 30 32 31 34 34 31 36 41 42 39 39 35 32 30 30 30 31 35 38 38 37 36 33 31 29 26 24
8 12 17 19 19 21 22 22 22 24 27 30 30 29 29 27 30 32 33 35 39 34 34 42 43 39 39 36 36 35 35 32 31 33 37 39 38 37 35 33 31 28 27
3 5 7 14 19 23 21 22 22 24 24 26 27 28 29 31 31 32 36 37 39 38 39 40 44 43 45 41 42 41 40 37 35 37 39 41 41 38 37 36 32 31 29
2 2 4 8 11 15 23 24 18 23 26 27 30 32 33 34 32 33 35 38 38 39 42 41 44 45 44 47 46 45 43 41 38 37 40 42 41 40 40 37 35 33 29
4 3 4 6 9 12 15 21 25 26 26 28 27 30 31 30 32 33 35 36 39 41 44 42 49 43 54 47 47 48 44 46 41 42 42 42 40 42 40 37 35 30 29
8 7 5 6 8 10 15 16 20 26 29 27 28 30 31 31 30 33 34 37 39 42 47 47 51 54 53 55 52 51 47 52 50 41 38 41 42 43 40 36 33 32 30
11 10 9 9 8 9 13 16 19 20 26 27 28 29 30 31 32 33 35 35 36 39 43 45 56 54 52 44 46 51 51 54 47 42 38 34 39 42 38 37 33 32 30
12 11 12 11 10 9 12 15 17 21 21 21 23 25 27 29 28 28 27 29 32 32 32 32 37 42 50 51 54 47 49 48 47 45 41 36 37 35 40 36 33 31 29
15 14 14 13 12 10 11 14 14 16 19 22 24 25 24 24 27 26 27 29 26 25 27 28 31 34 44 51 51 46 45 46 45 39 39 36 37 32 30 33 30 29 28
Wind_Direction
213 213 213 219 229 230 217 195 186 186 181 178 191 174 188 205 195 195 193 194 213 217 210 211 216 213 201 206 190 170 182 178 177 189 203 208 206 181 127 112 72 59 54
216 215 210 219 223 226 209 196 185 185 183 180 192 184 189 184 196 209 237 233 207 200 193 210 210 183 184 168 150 165 172 177 184 194 183 189 165 144 124 88 57 50 49
214 217 212 216 216 216 197 178 179 183 190 192 193 190 184 195 190 200 205 194 189 190 200 185 187 177 178 160 163 179 181 186 184 205 202 188 171 167 139 123 78 45 36
220 216 215 216 215 201 188 181 183 190 197 199 198 201 194 201 202 202 200 195 200 201 182 179 187 183 176 176 184 193 191 191 197 203 210 185 180 179 179 177 54 33 26
220 219 218 214 211 196 197 190 192 196 200 202 200 186 190 203 211 209 214 211 203 205 192 191 197 199 220 193 197 204 204 211 207 209 206 200 194 194 202 200 14 21 18
217 219 217 203 201 199 195 201 204 199 197 188 192 198 198 205 213 213 221 220 216 209 202 212 205 212 191 185 197 216 260 258 212 212 215 204 202 206 217 234 330 356 2
225 215 218 210 204 200 202 203 202 205 195 187 187 191 185 197 204 213 218 225 216 214 208 215 219 212 205 202 198 219 250 284 235 223 221 221 216 223 235 249 276 312 324
225 215 213 220 215 205 209 206 203 198 198 191 191 189 180 190 216 220 223 226 228 229 219 220 225 219 222 210 218 227 248 275 251 236 229 226 223 230 241 253 263 278 293
217 215 214 213 217 217 207 204 206 209 200 195 204 188 187 206 210 217 224 234 231 228 219 223 226 227 226 232 230 236 246 264 255 244 236 235 231 233 242 252 262 274 283
214 215 215 212 213 217 220 207 211 215 214 198 200 210 212 209 188 204 222 227 231 228 222 224 226 229 230 232 239 241 251 256 254 248 241 236 236 237 242 249 258 267 277
209 212 217 215 214 215 219 221 217 220 217 217 206 206 217 218 216 212 214 223 225 230 228 228 228 230 234 235 239 243 251 254 253 248 240 243 240 239 245 249 256 264 274
206 207 212 218 218 217 217 218 224 217 225 217 220 219 219 221 220 222 229 231 234 232 230 231 233 232 236 235 238 244 246 251 253 249 240 228 238 245 244 249 258 263 272
204 200 203 208 216 218 221 219 219 227 220 221 222 234 228 231 236 239 243 235 233 242 235 236 238 235 236 242 246 241 245 247 250 250 245 231 229 249 253 249 255 261 268
202 196 203 207 214 214 219 217 217 219 227 229 233 231 238 243 244 240 243 240 231 236 240 243 243 241 245 247 247 245 245 244 248 250 248 241 236 242 257 252 255 261 265
193 196 203 209 213 215 220 225 219 220 221 228 234 234 235 241 247 242 242 240 243 235 237 242 243 250 249 252 250 248 248 248 252 252 248 243 240 246 254 255 255 261 263
185 185 191 203 211 216 220 224 224 223 229 231 235 232 238 240 246 238 241 238 241 242 249 257 257 264 262 255 256 252 253 250 248 249 249 244 244 247 252 253 253 259 261
198 203 209 212 211 212 218 222 228 230 229 233 236 232 237 241 243 242 245 248 246 244 249 250 259 261 262 259 252 252 250 249 245 243 246 244 244 247 251 252 253 256 259
200 209 213 215 219 224 228 228 230 230 232 234 233 238 238 243 246 252 253 251 249 255 258 260 255 254 257 254 249 249 253 248 243 240 240 241 243 245 248 252 255 255 257
166 203 211 211 218 223 221 232 235 235 235 232 237 236 241 239 238 246 246 251 250 258 260 254 250 254 246 245 243 245 248 246 242 240 238 241 241 244 245 248 251 254 257
131 183 193 209 222 227 225 222 233 238 237 236 237 241 242 244 249 253 256 255 257 257 256 254 253 248 253 246 246 244 243 241 240 235 235 238 240 242 245 246 249 251 255
7 271 214 217 227 226 227 232 225 238 237 243 243 247 251 253 256 254 253 256 255 258 257 256 248 254 245 243 241 248 249 243 244 240 236 236 236 239 241 242 246 249 253
341 299 262 246 233 232 234 230 228 232 237 243 247 248 253 256 255 254 253 256 257 259 252 251 247 253 249 253 247 243 242 236 234 239 240 237 239 241 242 244 248 250 252
326 315 290 265 257 241 232 241 237 239 241 243 246 250 255 256 259 256 253 257 255 255 254 254 253 252 250 255 257 241 257 238 238 241 239 237 237 239 240 242 245 246 248
312 316 311 297 265 249 246 245 246 245 241 246 250 254 259 261 261 265 261 260 259 258 254 252 249 254 260 270 247 259 258 240 234 238 236 235 242 240 241 240 240 243 247
303 309 308 298 284 260 246 246 253 251 253 253 257 258 259 260 264 262 259 260 261 260 261 260 257 256 245 249 253 249 241 237 232 235 237 237 242 240 239 236 238 238 243
295 301 304 305 294 275 258 256 264 263 265 268 265 262 258 262 256 255 255 256 258 261 262 264 261 262 252 247 247 252 252 248 233 231 237 232 236 235 231 232 232 234 241